885  
NZUS01 KABQ 191810  
RWRABQ  
NEW MEXICO REGIONAL WEATHER ROUNDUP  
NATIONAL WEATHER SERVICE ALBUQUERQUE NM  
1200 PM MDT TUE SEP 19 2017  
 
-----NORTHERN NEW MEXICO AND NEARBY AREAS-----  
 
 
CITY SKY/WX TMP DP RH WIND PRES REMARKS
 
ALBUQUERQUE FAIR 76 35 22 SW10 30.05F  
6HR MIN TEMP: 55; 6HR MAX TEMP: 76;  
 
BELEN FAIR 83 32 15 W13G20 30.03F  
6HR MIN TEMP: 49; 6HR MAX TEMP: 83;  
 
SOCORRO FAIR 85 31 14 CALM 30.01F  
6HR MIN TEMP: 51; 6HR MAX TEMP: 85;  
 
 
CITY SKY/WX TMP DP RH WIND PRES REMARKS
 
SANTA FE SUNNY 75 26 16 W14G23 30.07F  
6HR MIN TEMP: 46; 6HR MAX TEMP: 75;  
 
LOS ALAMOS SUNNY 71 23 16 W10G20 30.12F  
6HR MIN TEMP: 55; 6HR MAX TEMP: 71;  
 
TAOS CLOUDY 72 25 17 SW22G31 30.09F  
6HR MIN TEMP: 40; 6HR MAX TEMP: 72;  
 
ANGEL FIRE FAIR 58 21 23 SW16G29 30.15R  
FARMINGTON SUNNY 71 23 16 VRB7 30.02F  
6HR MIN TEMP: 40; 6HR MAX TEMP: 71;  
 
GRANTS SUNNY 75 17 11 W18G26 30.14S  
6HR MIN TEMP: 47; 6HR MAX TEMP: 75;  
 
GALLUP MOSUNNY 73 18 12 SW24G32 30.12F  
6HR MIN TEMP: 41; 6HR MAX TEMP: 73;  
 
FLAGSTAFF MOSUNNY 64 22 20 SW28G39 30.15S  
6HR MIN TEMP: 48; 6HR MAX TEMP: 64;  
 
DURANGO SUNNY 67 25 20 SW10G17 30.08F  
6HR MIN TEMP: 32; 6HR MAX TEMP: 67;  
 
 
CITY SKY/WX TMP DP RH WIND PRES REMARKS
 
ALAMOSA CLOUDY 68 16 13 SW20G29 30.02F  
6HR MIN TEMP: 40; 6HR MAX TEMP: 70;  
 
DENVER CLOUDY 81 14 8 SW12 29.68F  
6HR MIN TEMP: 61; 6HR MAX TEMP: 81;  
 
CLAYTON SUNNY 83 19 9 SW21G29 29.85F  
6HR MIN TEMP: 55; 6HR MAX TEMP: 83;  
 
RATON CLOUDY 78 19 11 W12G21 29.92F  
6HR MIN TEMP: 39; 6HR MAX TEMP: 78;  
 
LAS VEGAS SUNNY 73 22 14 SW18G26 30.03F  
6HR MIN TEMP: 48; 6HR MAX TEMP: 74;  
 
CLINES CORNERS SUNNY 73 27 18 W28G41 30.10F  
6HR MIN TEMP: 47; 6HR MAX TEMP: 73;  
 
SANTA ROSA FAIR 85 32 15 SW24G32 29.93F  
6HR MIN TEMP: 57; 6HR MAX TEMP: 85;  
 
TUCUMCARI SUNNY 90 29 11 SW21G36 29.86F  
6HR MIN TEMP: 56; 6HR MAX TEMP: 90;  
 
CLOVIS (AFB) SUNNY 85 41 20 SW23G30 29.95F  
6HR MIN TEMP: 58; 6HR MAX TEMP: 86;  
 
CLOVIS SUNNY 85 43 22 SW24 29.94F  
6HR MIN TEMP: 57; 6HR MAX TEMP: 86;  
 
AMARILLO SUNNY 90 40 17 SW23G35 29.87F  
6HR MIN TEMP: 63; 6HR MAX TEMP: 90;  
 
-----SOUTHERN NEW MEXICO AND NEARBY AREAS-----  
 
 
CITY SKY/WX TMP DP RH WIND PRES REMARKS
 
T OR C SUNNY 87 38 17 W18G25 30.02F  
6HR MIN TEMP: 59; 6HR MAX TEMP: 87;  
 
DEMING SUNNY 85 55 35 W17G28 30.06F  
6HR MIN TEMP: 56; 6HR MAX TEMP: 85;  
 
TUCSON PTSUNNY 92 58 31 SW15G24 29.98F  
6HR MIN TEMP: 74; 6HR MAX TEMP: 92;  
 
EL PASO MOSUNNY 89 52 28 SW15G21 30.03F  
6HR MIN TEMP: 73; 6HR MAX TEMP: 89;  
 
LAS CRUCES SUNNY 85 43 23 W17G24 30.08F  
6HR MIN TEMP: 58; 6HR MAX TEMP: 85;  
 
 
CITY SKY/WX TMP DP RH WIND PRES REMARKS
 
ALAMOGORDO SUNNY 90 46 21 SW12G20 30.03F  
6HR MIN TEMP: 68; 6HR MAX TEMP: 91;  
 
RUIDOSO SUNNY 75 36 23 SW26G33 30.15F  
ROSWELL SUNNY 94 43 17 W10G26 29.91F  
6HR MIN TEMP: 62; 6HR MAX TEMP: 95;  
 
CARLSBAD SUNNY 94 46 19 SW15 29.92F  
6HR MIN TEMP: 63; 6HR MAX TEMP: 94;  
 
HOBBS SUNNY 90 48 24 SW12 29.97F  
 
CLICK HERE TO GO TO PREVIOUS BULLETINS.

The Nexlab NM Page Main Text Page